Torna al catalogo

STARLINK-37063

AttivoComunicazioniVLEO
NORAD 68079·PAYLOAD·🇺🇸 United States

Lanciato Mar 4, 2026 da Vandenberg Space Force Base

Loading…

Prossimi Passaggi (prossime 24 ore)

TLE

AggiornatoSource: CelesTrak SupGP

Epoca: Sep 15, 2026, 04:04 UTC

1 68079C 26042L   26258.16993056  .00070624  00000+0  20865-2 0  2585
2 68079  53.1604  14.6454 0001303  88.0585 183.5588 15.34357720    12

Traccia STARLINK-37063 in tempo reale con AllMySat

Download on the App Store